(165136) = 2000 KN74 = 2001 RM35

Discovered at Socorro on 2000-05-27 by LINEAR.

Orbit

Orbit type: Main Belt

Note: WebGL enabled browser required.

epoch2024-03-31.0
epoch JD2460400.5
perihelion date2022-06-05.15598
perihelion JD2459735.65598
argument of perihelion (°)28.24357
ascending node (°)203.46227
inclination (°)6.97606
eccentricity0.1723878
perihelion distance (AU)2.5859030
Tisserand w.r.t. Jupiter3.2
ΔV w.r.t. Earth (km/sec)10.3
semimajor axis (AU)3.1245347
mean anomaly (°)118.64395
mean daily motion (°/day)0.17845380
aphelion distance (AU)3.663
period (years)5.52
P-vector [x]-0.62109386
P-vector [y]-0.73998993
P-vector [z]-0.25818080
Q-vector [x]0.78224297
Q-vector [y]-0.60563402
Q-vector [z]-0.14595674
absolute magnitude15.12
phase slope0.15
uncertainty0
referenceMPEC 2024-E02
observations used685
oppositions16
arc length (days)8587
first opposition used2000
last opposition used2023
residual rms (arc-secs)0.72
perturbers coarse indicatorM-v
perturbers precise indicator003Ek
first observation date used2000-05-06.0
last observation date used2023-11-09.0
computer nameMPCLINUX
JD of orbit computation2456639.830142
perihelion JD uncertainty (days)1.0059E-04
argument of perihelion uncertainty (°)4.1691E-05
ascending node uncertainty (°)3.8225E-05
inclination uncertainty (°)7.4226E-06
eccentricity uncertainty 5.9794E-08
perihelion distance uncertainty (AU)1.8371E-07
Minimum Orbit Intersection Distances (in AU)
for orbit epoch: 2460400.5, reference: E2024-E02
Mercury2.12941
Venus1.86232
Earth1.57822
Mars1.01245
Jupiter1.3274
Saturn5.44705
Uranus15.4284
Neptune26.1729

Observations

703 total observations over interval: 2000 05 06.34815 – 2023 11 09.139704
These data are available for download (format description).

Date (UT) J2000 RA J2000 Dec Magn Location Ref
2000 05 06.34815 15 23 32.06 -13 23 33.5 18.4   704 – Lincoln Laboratory ETS, New Mexico MPS 35743
2000 05 06.36027 15 23 31.51 -13 23 29.4 18.8   704 – Lincoln Laboratory ETS, New Mexico MPS 35743
2000 05 06.37242 15 23 30.87 -13 23 24.8 18.8   704 – Lincoln Laboratory ETS, New Mexico MPS 35743
2000 05 06.38455 15 23 30.40 -13 23 20.6 19.2   704 – Lincoln Laboratory ETS, New Mexico MPS 35743
2000 05 27.24045 15 08 38.06 -11 30 40.2 18.0   704 – Lincoln Laboratory ETS, New Mexico MPS 17098
2000 05 27.25398 15 08 37.51 -11 30 36.9 18.7   704 – Lincoln Laboratory ETS, New Mexico MPS 17098
2000 05 27.26747 15 08 37.01 -11 30 32.4 18.7   704 – Lincoln Laboratory ETS, New Mexico MPS 17098
2000 05 27.28100 15 08 36.41 -11 30 28.9 18.7   704 – Lincoln Laboratory ETS, New Mexico MPS 17098
2000 05 27.29447 15 08 35.93 -11 30 26.0 19.2   704 – Lincoln Laboratory ETS, New Mexico MPS 17098
2000 06 06.25913 15 03 10.02 -10 52 32.8 18.3 R 699 – Lowell Observatory-LONEOS MPS 17098
2000 06 06.26939 15 03 09.67 -10 52 30.6   699 – Lowell Observatory-LONEOS MPS 17098
2000 06 06.27966 15 03 09.36 -10 52 28.4   699 – Lowell Observatory-LONEOS MPS 17098
2000 06 06.28997 15 03 09.09 -10 52 26.1   699 – Lowell Observatory-LONEOS MPS 17098
2001 08 12.58324 22 39 04.90 -00 16 45.9 21.0   608 – Haleakala-AMOS MPS 35743
2001 08 12.59337 22 39 04.48 -00 16 48.9 20.7   608 – Haleakala-AMOS MPS 35743
2001 08 12.60356 22 39 04.07 -00 16 51.5 20.8   608 – Haleakala-AMOS MPS 35743
2001 08 23.26648 22 31 45.45 -01 08 09.4 19.5 R 699 – Lowell Observatory-LONEOS MPS 35743
2001 08 23.28984 22 31 44.42 -01 08 16.7   699 – Lowell Observatory-LONEOS MPS 35743
2001 08 23.31322 22 31 43.35 -01 08 24.2   699 – Lowell Observatory-LONEOS MPS 35743
2001 08 23.33666 22 31 42.30 -01 08 31.2   699 – Lowell Observatory-LONEOS MPS 35743
2001 09 08.19075 22 20 28.26 -02 39 41.8 19.1   704 – Lincoln Laboratory ETS, New Mexico MPS 34999
2001 09 08.20435 22 20 27.76 -02 39 46.6 19.5   704 – Lincoln Laboratory ETS, New Mexico MPS 34999
2001 09 08.21816 22 20 27.17 -02 39 50.8 19.5   704 – Lincoln Laboratory ETS, New Mexico MPS 34999
2001 09 08.23180 22 20 26.50 -02 39 55.4 19.6   704 – Lincoln Laboratory ETS, New Mexico MPS 34999
2001 09 08.24546 22 20 26.03 -02 40 00.8 19.6   704 – Lincoln Laboratory ETS, New Mexico MPS 34999
2001 09 12.26605 22 17 48.51 -03 03 54.3 19.6   704 – Lincoln Laboratory ETS, New Mexico MPS 34999
2001 09 12.28055 22 17 47.99 -03 04 00.1 20.1   704 – Lincoln Laboratory ETS, New Mexico MPS 34999
2001 09 12.29502 22 17 47.45 -03 04 05.0 19.9   704 – Lincoln Laboratory ETS, New Mexico MPS 34999
2001 09 12.30962 22 17 46.81 -03 04 10.6 19.4   704 – Lincoln Laboratory ETS, New Mexico MPS 34999
2005 03 04.27422 11 21 33.45 -02 30 18.2 18.4 R 703 – Catalina Sky Survey MPS 129954
2005 03 04.28444 11 21 32.99 -02 30 14.1 18.9 R 703 – Catalina Sky Survey MPS 129954
2005 03 04.29464 11 21 32.48 -02 30 11.5 18.6 R 703 – Catalina Sky Survey MPS 129954
2005 03 04.30495 11 21 32.14 -02 30 08.8 18.1 R 703 – Catalina Sky Survey MPS 129954
2005 03 07.26407 11 19 25.19 -02 11 29.2 18.3 R H06 – iTelescope Observatory, Mayhill MPS 127780
2005 03 07.28234 11 19 24.29 -02 11 23.2 18.5 R H06 – iTelescope Observatory, Mayhill MPS 127780
2005 03 07.30038 11 19 23.52 -02 11 15.2 18.9 R H06 – iTelescope Observatory, Mayhill MPS 127780
2005 03 08.19096 11 18 45.02 -02 05 28.8 19.2 V 691 – Steward Observatory, Kitt Peak-Spacewatch MPS 127780
2005 03 08.21617 11 18 43.88 -02 05 18.9 19.2 V 691 – Steward Observatory, Kitt Peak-Spacewatch MPS 127780
2005 03 08.24354 11 18 42.66 -02 05 08.3 19.1 V 691 – Steward Observatory, Kitt Peak-Spacewatch MPS 127780
2005 03 10.25407 11 17 14.80 -01 51 50.2 17.9 R 703 – Catalina Sky Survey MPS 127780
2005 03 10.26377 11 17 14.33 -01 51 46.9 18.2 R 703 – Catalina Sky Survey MPS 127780
2005 03 10.27345 11 17 13.91 -01 51 42.8 18.4 R 703 – Catalina Sky Survey MPS 127780
2005 03 10.28313 11 17 13.49 -01 51 37.8 18.2 R 703 – Catalina Sky Survey MPS 127780
2005 03 17.39443 11 12 04.28 -01 02 33.6 18.7 R 703 – Catalina Sky Survey MPS 128917
2005 03 17.40150 11 12 03.98 -01 02 30.6 18.1 R 703 – Catalina Sky Survey MPS 128917
2005 03 17.40854 11 12 03.67 -01 02 27.8 17.8 R 703 – Catalina Sky Survey MPS 128917
2005 03 17.41557 11 12 03.36 -01 02 24.7 17.8 R 703 – Catalina Sky Survey MPS 128917
2005 03 30.15344 11 03 46.42 +00 26 39.6 18.9 R H06 – iTelescope Observatory, Mayhill MPS 130614
2005 03 30.19568 11 03 44.82 +00 26 56.3 18.9 R H06 – iTelescope Observatory, Mayhill MPS 130614
2005 03 30.23917 11 03 43.24 +00 27 13.8 18.9 R H06 – iTelescope Observatory, Mayhill MPS 130614
2005 04 04.27018 11 01 04.29 +01 00 18.2 18.6 R 703 – Catalina Sky Survey MPS 130614
2005 04 04.27825 11 01 04.04 +01 00 21.9 18.4 R 703 – Catalina Sky Survey MPS 130614
2005 04 04.28632 11 01 03.75 +01 00 25.1 18.4 R 703 – Catalina Sky Survey MPS 130614
2005 04 04.29436 11 01 03.50 +01 00 27.7 18.9 R 703 – Catalina Sky Survey MPS 130614
2005 04 09.21638 10 58 55.93 +01 30 34.9 19.0 R 699 – Lowell Observatory-LONEOS MPS 131543
2005 04 09.24071 10 58 55.17 +01 30 44.4   699 – Lowell Observatory-LONEOS MPS 131543
2005 04 09.26503 10 58 54.60 +01 30 52.4   699 – Lowell Observatory-LONEOS MPS 131543
2005 04 09.28935 10 58 54.01 +01 30 59.0   699 – Lowell Observatory-LONEOS MPS 131543
2007 09 13.40122 00 47 47.46 +08 04 23.2 20.0 V 691 – Steward Observatory, Kitt Peak-Spacewatch MPS 214973
2007 09 13.41898 00 47 46.84 +08 04 18.7 20.2 V 691 – Steward Observatory, Kitt Peak-Spacewatch MPS 214973
2007 09 13.43667 00 47 46.17 +08 04 13.1 20.4 V 691 – Steward Observatory, Kitt Peak-Spacewatch MPS 214973
2007 09 20.41232 00 43 21.86 +07 28 04.2 20.0 V 691 – Steward Observatory, Kitt Peak-Spacewatch MPS 215972
2007 09 20.42991 00 43 21.14 +07 27 57.8 20.1 V 691 – Steward Observatory, Kitt Peak-Spacewatch MPS 215972
2007 09 20.44750 00 43 20.43 +07 27 52.5 20.1 V 691 – Steward Observatory, Kitt Peak-Spacewatch MPS 215972
2007 10 06.20619 00 32 25.82 +05 55 30.2 19.8   704 – Lincoln Laboratory ETS, New Mexico MPS 218433
2007 10 06.22797 00 32 24.90 +05 55 23.2 20.3   704 – Lincoln Laboratory ETS, New Mexico MPS 218433
2007 10 06.24964 00 32 24.00 +05 55 15.4 20.5   704 – Lincoln Laboratory ETS, New Mexico MPS 218433
2007 10 10.29655 00 29 36.60 +05 30 46.4 19.8 V G96 – Mt. Lemmon Survey MPS 218433
2007 10 10.30363 00 29 36.31 +05 30 43.9 19.9 V G96 – Mt. Lemmon Survey MPS 218433
2007 10 10.31072 00 29 36.02 +05 30 41.5 20.0 V G96 – Mt. Lemmon Survey MPS 218433
2007 10 10.31777 00 29 35.70 +05 30 38.9 20.0 V G96 – Mt. Lemmon Survey MPS 218433
2007 11 01.17558 00 17 06.00 +03 31 52.6 20.7 V G96 – Mt. Lemmon Survey MPS 224507
2007 11 01.18219 00 17 05.85 +03 31 51.0 20.2 V G96 – Mt. Lemmon Survey MPS 224507
2007 11 01.18880 00 17 05.64 +03 31 48.9 20.6 V G96 – Mt. Lemmon Survey MPS 224507
2007 11 01.19538 00 17 05.49 +03 31 47.2 20.6 V G96 – Mt. Lemmon Survey MPS 224507
2007 11 09.21156 00 14 12.44 +02 59 00.7 20.8 V G96 – Mt. Lemmon Survey MPS 226581
2007 11 09.21765 00 14 12.30 +02 58 59.1 20.8 V G96 – Mt. Lemmon Survey MPS 226581
2007 11 09.22359 00 14 12.19 +02 58 58.1 20.9 V G96 – Mt. Lemmon Survey MPS 226581
2007 11 09.22952 00 14 12.08 +02 58 56.5 20.9 V G96 – Mt. Lemmon Survey MPS 226581
2007 12 21.08230 00 17 49.70 +02 19 15.9 21.6 V G96 – Mt. Lemmon Survey MPS 232495
2007 12 21.09035 00 17 49.88 +02 19 18.5 21.0 V G96 – Mt. Lemmon Survey MPS 232495
2007 12 21.09846 00 17 50.06 +02 19 17.4 21.3 V G96 – Mt. Lemmon Survey MPS 232495
2007 12 21.10647 00 17 50.31 +02 19 18.9 20.4 V G96 – Mt. Lemmon Survey MPS 232495
2008 12 08.14664 04 06 47.05 +14 21 52.2 20.0 V G96 – Mt. Lemmon Survey MPS 269050
2008 12 08.15061 04 06 46.87 +14 21 51.8 19.7 V G96 – Mt. Lemmon Survey MPS 269050
2008 12 08.15455 04 06 46.69 +14 21 51.1 19.7 V G96 – Mt. Lemmon Survey MPS 269050
2008 12 08.15852 04 06 46.58 +14 21 50.4 19.6 V G96 – Mt. Lemmon Survey MPS 269050
2009 11 27.43929 08 49 32.91 +09 11 26.0 20.4 V G96 – Mt. Lemmon Survey MPS 306453
2009 11 27.44412 08 49 32.95 +09 11 24.6 20.4 V G96 – Mt. Lemmon Survey MPS 306453
2009 11 27.44874 08 49 33.02 +09 11 23.8 20.6 V G96 – Mt. Lemmon Survey MPS 306453
